Longmont, CO

1:26 AM MDT on September 29, 2016 (GMT -0600)
Lemoore (Abandoned) Willett A

Weather History for KLMO - March, 2014

Change the Weather History Date:

Sunday, March 9, 2014

  Actual Average (KBDU) Record (KBDU)
Temperature  
Mean Temperature 50 °F -  
Max Temperature 77 °F - 71 °F (2014)
Min Temperature 24 °F - 32 °F (2015)
Degree Days  
Heating Degree Days 14    
Month to date heating degree days  
Cooling Degree Days 0    
Month to date cooling degree days  
Moisture  
Dew Point 17 °F    
Average Humidity 39    
Maximum Humidity 85    
Minimum Humidity 7    
Precipitation  
Precipitation 0.00 in - 0.00 in (2016)
Sea Level Pressure  
Sea Level Pressure 30.11 in    
Wind  
Wind Speed 4 mph (West)    
Max Wind Speed 17 mph    
Max Gust Speed 28 mph    
Visibility 10 miles    
Events      
T = Trace of Precipitation, MM = Missing Value Source: NWS Daily Summary

Daily Weather History Graph

Daily Weather History Graph

Search for Another Location

Airport or City:

Trip Planner

Search our weather history database for the weather conditions in past years. The results will help you decide how hot, cold, wet, or windy it might be!

Date:

Astronomy

Mar. 09, 2014 Rise Set
Actual Time 7:21 AM MDT 7:01 PM MDT
Civil Twilight 6:54 AM MDT 7:28 PM MDT
Nautical Twilight 6:23 AM MDT 7:59 PM MDT
Astronomical Twilight 5:51 AM MDT 8:31 PM MDT
Moon 12:55 PM MDT (3/9) 3:49 AM MDT (3/9)
Length of Visible Light 12h 33m
Length of Day
11h 39m
First Quarter, 61% of the Moon is Illuminated
Mar 9
First Quarter
Mar 16
Full
Mar 23
Last Quarter
Mar 30
New
Apr 7
First Quarter

Hourly Weather History & Observations

Time (MDT) Temp. Windchill Dew Point Humidity Pressure Visibility Wind Dir Wind Speed Gust Speed Precip Events Conditions
12:15 AM 30.4 °F 26.9 °F 26.2 °F 85% 30.25 in 10.0 mi SW 3.5 mph - N/A   Clear
12:35 AM 31.8 °F - 26.4 °F 80% 30.24 in 10.0 mi Calm Calm - N/A   Clear
12:55 AM 30.6 °F 24.7 °F 25.2 °F 80% 30.24 in 10.0 mi WSW 5.8 mph - N/A   Clear
1:15 AM 32.5 °F - 25.3 °F 75% 30.23 in 10.0 mi Calm Calm - N/A   Clear
1:35 AM 30.9 °F - 25.5 °F 80% 30.22 in 10.0 mi Calm Calm - N/A   Clear
1:55 AM 30.6 °F - 24.8 °F 79% 30.21 in 10.0 mi Calm Calm - N/A   Clear
3:15 AM 29.5 °F - 25.2 °F 84% 30.20 in 10.0 mi Calm Calm - N/A   Clear
3:35 AM 29.3 °F - 24.3 °F 81% 30.19 in 10.0 mi Calm Calm - N/A   Clear
3:55 AM 28.8 °F 25.0 °F 23.2 °F 80% 30.19 in 10.0 mi NW 3.5 mph - N/A   Clear
4:15 AM 28.8 °F - 23.2 °F 80% 30.18 in 10.0 mi Calm Calm - N/A   Clear
4:35 AM 29.1 °F 24.1 °F 24.1 °F 81% 30.18 in 10.0 mi West 4.6 mph - N/A   Clear
4:55 AM 28.4 °F 24.6 °F 22.8 °F 80% 30.18 in 10.0 mi SW 3.5 mph - N/A   Clear
5:15 AM 27.7 °F - 22.5 °F 81% 30.17 in 10.0 mi Calm Calm - N/A   Clear
5:35 AM 27.3 °F - 22.3 °F 81% 30.17 in 10.0 mi Calm Calm - N/A   Clear
5:55 AM 27.5 °F - 21.2 °F 77% 30.17 in 10.0 mi Calm Calm - N/A   Clear
6:15 AM 26.4 °F - 20.1 °F 77% 30.17 in 10.0 mi Calm Calm - N/A   Clear
6:35 AM 25.0 °F - 19.0 °F 78% 30.17 in 10.0 mi Calm Calm - N/A   Clear
6:55 AM 24.8 °F - 19.8 °F 81% 30.16 in 10.0 mi Calm Calm - N/A   Clear
7:15 AM 24.8 °F 20.5 °F 19.2 °F 79% 30.16 in 10.0 mi WSW 3.5 mph - N/A   Clear
7:35 AM 25.9 °F - 19.4 °F 76% 30.16 in 10.0 mi Calm Calm - N/A   Clear
7:55 AM 28.2 °F - 23.5 °F 83% 30.15 in 10.0 mi Calm Calm - N/A   Clear
8:15 AM 31.5 °F - 23.0 °F 71% 30.14 in 10.0 mi Calm Calm - N/A   Clear
8:35 AM 34.7 °F 31.8 °F 25.5 °F 69% 30.14 in 10.0 mi West 3.5 mph - N/A   Clear
8:55 AM 38.5 °F - 28.0 °F 66% 30.14 in 10.0 mi Calm Calm - N/A   Clear
9:15 AM 42.8 °F - 30.0 °F 61% 30.14 in 10.0 mi Calm Calm - N/A   Clear
9:35 AM 46.0 °F - 29.5 °F 52% 30.13 in 10.0 mi Calm Calm - N/A   Clear
9:55 AM 48.9 °F - 25.9 °F 41% 30.13 in 10.0 mi Calm Calm - N/A   Clear
10:15 AM 52.3 °F - 25.7 °F 36% 30.13 in 10.0 mi Calm Calm - N/A   Clear
10:35 AM 55.6 °F - 27.1 °F 34% 30.13 in 10.0 mi SE 3.5 mph - N/A   Clear
10:55 AM 57.6 °F - 27.3 °F 31% 30.12 in 10.0 mi Calm Calm - N/A   Clear
11:15 AM 59.7 °F - 26.2 °F 28% 30.11 in 10.0 mi Calm Calm - N/A   Clear
11:35 AM 63.9 °F - 24.1 °F 22% 30.10 in 10.0 mi SE 3.5 mph - N/A   Clear
11:55 AM 68.4 °F - 24.8 °F 19% 30.09 in 10.0 mi Calm Calm - N/A   Clear
12:15 PM 70.7 °F - 29.5 °F 22% 30.08 in 10.0 mi NNE 6.9 mph - N/A   Clear
12:35 PM 74.3 °F - 14.0 °F 10% 30.08 in 10.0 mi WNW 3.5 mph - N/A   Clear
12:55 PM 76.1 °F - 10.0 °F 8% 30.08 in 10.0 mi WSW 5.8 mph - N/A   Clear
1:15 PM 76.1 °F - 12.2 °F 9% 30.07 in 10.0 mi NNE 3.5 mph - N/A   Clear
1:35 PM 77.0 °F - 11.8 °F 8% 30.07 in 10.0 mi West 6.9 mph - N/A   Clear
1:55 PM 76.1 °F - 9.3 °F 8% 30.06 in 10.0 mi WNW 10.4 mph 19.6 mph N/A   Clear
2:15 PM 75.6 °F - 6.1 °F 7% 30.06 in 10.0 mi WSW 13.8 mph 23.0 mph N/A   Clear
2:35 PM 74.1 °F - 6.3 °F 7% 30.05 in 10.0 mi West 13.8 mph 26.5 mph N/A   Clear
2:55 PM 75.4 °F - 6.6 °F 7% 30.05 in 10.0 mi West 12.7 mph 20.7 mph N/A   Clear
3:15 PM 74.7 °F - 5.2 °F 7% 30.04 in 10.0 mi West 15.0 mph 23.0 mph N/A   Clear
3:35 PM 75.2 °F - 5.5 °F 7% 30.04 in 10.0 mi West 10.4 mph 18.4 mph N/A   Clear
3:55 PM 75.6 °F - 5.4 °F 7% 30.04 in 10.0 mi WNW 8.1 mph - N/A   Clear
4:15 PM 75.0 °F - 6.3 °F 7% 30.04 in 10.0 mi WNW 13.8 mph 18.4 mph N/A   Clear
4:34 PM 72.1 °F - 6.3 °F 8% 30.04 in 10.0 mi WNW 13.8 mph 20.7 mph N/A   Clear
4:55 PM 71.6 °F - 6.4 °F 8% 30.03 in 10.0 mi West 13.8 mph 21.9 mph N/A   Clear
5:15 PM 72.7 °F - 4.6 °F 7% 30.04 in 10.0 mi West 16.1 mph 25.3 mph N/A   Clear
5:35 PM 71.2 °F - 4.1 °F 7% 30.04 in 10.0 mi WSW 16.1 mph 27.6 mph N/A   Clear
5:55 PM 67.3 °F - 6.4 °F 9% 30.04 in 10.0 mi WSW 12.7 mph 18.4 mph N/A   Clear
6:15 PM 64.9 °F - 6.3 °F 10% 30.04 in 10.0 mi WSW 15.0 mph 23.0 mph N/A   Clear
6:35 PM 65.3 °F - 3.4 °F 9% 30.04 in 10.0 mi WSW 12.7 mph 24.2 mph N/A   Clear
6:55 PM 63.0 °F - 5.5 °F 10% 30.05 in 10.0 mi WSW 6.9 mph - N/A   Clear
7:15 PM 61.0 °F - 6.1 °F 11% 30.05 in 10.0 mi NW 8.1 mph 17.3 mph N/A   Clear
7:35 PM 63.5 °F - 2.5 °F 9% 30.05 in 10.0 mi West 17.3 mph - N/A   Clear
7:55 PM 62.2 °F - 5.2 °F 10% 30.06 in 10.0 mi West 11.5 mph - N/A   Clear
8:15 PM 60.1 °F - 6.6 °F 12% 30.06 in 10.0 mi WSW 9.2 mph - N/A   Clear
8:35 PM 57.0 °F - 10.9 °F 16% 30.06 in 10.0 mi WSW 5.8 mph - N/A   Clear
8:55 PM 50.2 °F - 17.8 °F 28% 30.06 in 10.0 mi NNW 5.8 mph - N/A   Clear
9:15 PM 49.3 °F - 15.3 °F 26% 30.06 in 10.0 mi Calm Calm - N/A   Clear
9:35 PM 45.9 °F 42.9 °F 19.4 °F 35% 30.07 in 10.0 mi NW 5.8 mph - N/A   Clear
9:55 PM 51.1 °F - 16.0 °F 25% 30.08 in 10.0 mi NW 6.9 mph - N/A   Clear
10:15 PM 51.4 °F - 12.2 °F 21% 30.07 in 10.0 mi Calm Calm - N/A   Clear
10:35 PM 53.2 °F - 14.7 °F 22% 30.08 in 10.0 mi SW 3.5 mph - N/A   Clear
10:55 PM 51.3 °F - 18.7 °F 28% 30.07 in 10.0 mi Calm Calm - N/A   Clear
11:15 PM 53.2 °F - 15.4 °F 22% 30.07 in 10.0 mi Calm Calm - N/A   Clear
11:35 PM 50.9 °F - 18.7 °F 28% 30.07 in 10.0 mi Calm Calm - N/A   Clear
11:55 PM 50.0 °F - 21.2 °F 32% 30.07 in 10.0 mi South 4.6 mph - N/A   Clear
12:15 AM 51.3 °F - 17.8 °F 27% 30.06 in 10.0 mi South 3.5 mph - N/A   Clear
12:35 AM 52.2 °F - 16.7 °F 25% 30.06 in 10.0 mi SSW 3.5 mph - N/A   Clear
12:55 AM 57.6 °F - 9.1 °F 15% 30.06 in 10.0 mi WSW 3.5 mph - N/A   Clear